EW0139 Weather Reports


time (UTC)temp
F
wind
direction
speed
knots
gust
knots
rain 1hr
in
rain 24hr
in
rain mn
in
humidity
%
barometer
mb
20260902203755 87 123 14.8 17.4 0.00 0.00 0.00 34 1003.7
20260902202240 89 113 7.8 18.2 0.00 0.00 0.00 33 1003.9
20260902200750 88 117 13.9 22.6 0.00 0.00 0.00 33 1004.1
20260902195249 89 92 17.4 24.3 0.00 0.00 0.00 35 1004.3
20260902193749 87 95 14.8 20.9 0.00 0.00 0.00 38 1004.5
20260902192255 87 125 13.0 22.6 0.00 0.00 0.00 37 1004.7
20260902190755 87 146 17.4 24.3 0.00 0.00 0.00 38 1004.7
20260902185238 86 112 11.3 21.7 0.00 0.00 0.00 39 1004.8
20260902183742 86 89 10.4 24.3 0.00 0.00 0.00 41 1005.1
20260902182242 85 92 16.5 22.6 0.00 0.00 0.00 42 1005.2
20260902180747 84 88 15.6 20.9 0.00 0.00 0.00 44 1005.6
20260902175248 81 79 12.2 21.7 0.00 0.00 0.00 46 1005.8
20260902173752 80 75 13.0 20.9 0.00 0.00 0.00 47 1006.1
20260902172320 79 69 13.9 23.5 0.00 0.00 0.00 47 1006.4
20260902170801 77 75 10.4 21.7 0.00 0.00 0.00 49 1006.5
20260902165249 77 104 13.0 16.5 0.00 0.00 0.00 48 1006.6
20260902163749 76 107 11.3 20.9 0.00 0.00 0.00 49 1006.8
20260902162248 75 95 10.4 19.1 0.00 0.00 0.00 50 1006.9
20260902160752 75 79 19.1 19.1 0.00 0.00 0.00 50 1007.0
20260902155252 73 95 13.0 19.1 0.00 0.00 0.00 52 1007.1
20260902153753 71 92 13.0 16.5 0.00 0.00 0.00 53 1007.3
20260902152258 71 84 9.6 12.2 0.00 0.00 0.00 54 1007.5
20260902150819 70 92 11.3 16.5 0.00 0.00 0.00 55 1007.9
20260902145305 69 100 12.2 17.4 0.00 0.00 0.00 56 1007.8
20260902143745 68 81 10.4 14.8 0.00 0.00 0.00 57 1007.8
20260902142245 67 74 8.7 19.1 0.00 0.00 0.00 57 1007.9
20260902140752 67 61 8.7 18.2 0.00 0.00 0.00 59 1007.9
20260902135253 65 46 7.8 15.6 0.00 0.00 0.00 60 1008.2
20260902133755 64 59 13.9 13.9 0.00 0.00 0.00 61 1008.2
20260902132258 63 42 5.2 13.0 0.00 0.00 0.00 62 1008.3
20260902130758 62 69 2.6 10.4 0.00 0.00 0.00 63 1008.4
20260902125241 62 67 4.3 11.3 0.00 0.00 0.00 62 1008.5
20260902123741 63 42 6.1 10.4 0.00 0.00 0.00 61 1008.6
20260902122242 63 41 2.6 8.7 0.00 0.00 0.00 60 1008.6
20260902120748 63 6 2.6 8.7 0.00 0.00 0.00 60 1008.7
20260902115249 63 48 2.6 4.3 0.00 0.00 0.00 60 1008.8
20260902113752 63 65 1.7 6.1 0.00 0.00 0.00 60 1009.0
20260902112237 63 30 0.0 6.1 0.00 0.00 0.00 60 1008.8
20260902110820 63 15 1.7 3.5 0.00 0.00 0.00 60 1009.0
20260902105245 63 19 0.0 4.3 0.00 0.00 0.00 59 1009.1
20260902103747 64 31 0.9 4.3 0.00 0.00 0.00 58 1008.9
20260902102249 64 29 3.5 3.5 0.00 0.00 0.00 57 1009.1
20260902100755 64 32 1.7 4.3 0.00 0.00 0.00 56 1009.0
20260902095314 64 44 2.6 5.2 0.00 0.00 0.00 56 1009.2
20260902093756 64 47 0.9 3.5 0.00 0.00 0.00 57 1009.5
20260902092241 64 42 2.6 5.2 0.00 0.00 0.00 56 1008.4
20260902090746 64 34 5.2 5.2 0.00 0.00 0.00 55 1008.5
20260902085254 65 43 1.7 3.5 0.00 0.00 0.00 54 1008.6
20260902083816 65 43 1.7 7.8 0.00 0.00 0.00 53 1008.6
20260902082256 66 71 2.6 8.7 0.00 0.00 0.00 52 1008.6
20260902080801 66 55 0.9 8.7 0.00 0.00 0.00 52 1008.6
20260902075245 66 60 0.9 6.1 0.00 0.00 0.00 51 1008.6
20260902073806 67 69 4.3 8.7 0.00 0.00 0.00 50 1008.6
20260902072255 67 96 7.8 8.7 0.00 0.00 0.00 49 1008.7
20260902070817 67 90 5.2 12.2 0.00 0.00 0.00 49 1008.7
20260902065318 68 92 10.4 13.0 0.00 0.00 0.00 48 1008.7
20260902063802 68 76 4.3 11.3 0.00 0.00 0.00 47 1008.8
20260902062306 69 69 8.7 13.9 0.00 0.00 0.00 45 1008.8
20260902060743 70 100 5.2 13.0 0.00 0.00 0.00 44 1008.7
20260902055248 70 107 6.1 11.3 0.00 0.00 0.00 43 1008.8
20260902053749 71 88 5.2 13.0 0.00 0.00 0.00 43 1008.8
20260902052314 71 58 12.2 13.0 0.00 0.00 0.00 42 1008.8
20260902050753 71 67 8.7 16.5 0.00 0.00 0.00 41 1008.8
20260902045253 71 42 7.0 14.8 0.00 0.00 0.00 39 1008.7
20260902043741 72 53 4.3 14.8 0.00 0.00 0.00 38 1008.7
20260902042241 72 90 7.8 16.5 0.00 0.00 0.00 38 1009.0
20260902040745 72 48 10.4 15.6 0.00 0.00 0.00 38 1008.9
20260902035251 72 44 8.7 12.2 0.00 0.00 0.00 38 1009.0
20260902033751 72 73 8.7 14.8 0.00 0.00 0.00 39 1009.3
20260902032252 72 48 7.0 13.9 0.00 0.00 0.00 38 1009.3
20260902030801 73 77 1.7 10.4 0.00 0.00 0.00 38 1009.4
20260902025241 73 107 5.2 10.4 0.00 0.00 0.00 37 1009.4
20260902023750 74 21 6.1 11.3 0.00 0.00 0.00 37 1009.2
20260902022251 74 38 9.6 11.3 0.00 0.00 0.00 35 1009.2
20260902020752 75 29 2.6 8.7 0.00 0.00 0.00 34 1009.2
20260902015241 77 80 5.2 8.7 0.00 0.00 0.00 33 1009.0
20260902013742 78 57 2.6 9.6 0.00 0.00 0.00 32 1008.9
20260902012249 79 57 7.8 10.4 0.00 0.00 0.00 31 1009.0
20260902010749 80 76 5.2 11.3 0.00 0.00 0.00 30 1009.1
20260902005253 81 63 2.6 13.9 0.00 0.00 0.00 29 1009.2
20260902003738 82 75 11.3 16.5 0.00 0.00 0.00 28 1009.2
20260902002306 83 46 9.6 15.6 0.00 0.00 0.00 28 1009.3
20260902000743 84 53 11.3 14.8 0.00 0.00 0.00 28 1009.2
20260901235248 84 75 12.2 19.1 0.00 0.00 0.00 27 1009.4
20260901233749 83 80 9.6 13.0 0.00 0.00 0.00 27 1009.5
20260901232255 84 97 8.7 17.4 0.00 0.00 0.00 26 1009.5
20260901230756 85 96 9.6 19.1 0.00 0.00 0.00 26 1009.6
20260901225318 86 102 16.5 19.1 0.00 0.00 0.00 25 1009.8
20260901223741 87 83 6.1 13.9 0.00 0.00 0.00 25 1009.8
20260901222242 87 75 12.2 14.8 0.00 0.00 0.00 25 1009.9
20260901220745 87 69 6.1 17.4 0.00 0.00 0.00 25 1010.1
20260901215248 86 94 10.4 15.6 0.00 0.00 0.00 26 1010.3
20260901213749 86 76 12.2 18.2 0.00 0.00 0.00 26 1010.6
20260901212316 85 65 10.4 15.6 0.00 0.00 0.00 28 1010.7
20260901210757 86 70 10.4 14.8 0.00 0.00 0.00 27 1010.8
20260901205238 85 49 12.2 16.5 0.00 0.00 0.00 28 1011.0